RH
34 45 52 53 48 42 47 52 40 41 62 79 85 84 82 80 73 65 58 56 54 51 48 47 46 44 41 37 35 33 31 28 25 25 27 30 32 34 36 38 40 44
40 48 54 56 48 40 46 50 40 47 73 84 84 85 84 78 67 59 55 53 51 49 46 45 43 41 37 34 32 29 26 23 23 26 29 31 33 36 39 43 48 52
45 52 58 58 50 40 41 42 38 53 76 82 83 85 81 72 61 54 51 49 47 45 42 40 39 36 33 31 29 25 23 22 25 29 31 33 36 40 46 53 58 61
50 55 61 60 52 41 36 33 33 49 71 80 82 81 75 65 54 49 47 45 44 41 39 37 35 32 30 29 26 24 24 25 29 32 34 37 42 49 58 64 67 68
53 58 63 62 55 45 36 30 28 37 53 70 80 79 70 57 49 47 44 42 40 38 36 34 31 30 29 28 28 27 29 31 33 36 38 44 52 62 69 70 69 66
55 61 64 62 57 48 38 31 28 26 31 48 70 79 70 52 44 43 40 38 37 34 33 31 30 30 29 30 31 32 34 36 39 43 46 53 62 68 71 69 64 58
56 60 62 63 58 51 43 36 30 25 24 32 52 73 72 52 41 41 40 38 38 37 35 33 32 33 32 33 34 36 38 41 46 51 54 59 66 71 71 66 61 56
53 53 58 62 60 54 45 36 28 25 28 34 47 67 72 53 39 41 42 41 42 41 39 38 37 37 37 38 38 38 40 45 52 57 59 63 67 74 74 67 63 58
48 48 54 59 58 53 42 32 25 21 30 47 59 70 71 54 41 42 44 45 47 46 44 44 42 42 43 43 43 43 44 47 52 55 59 63 69 78 77 69 65 55
44 45 50 55 56 51 38 29 24 20 35 61 72 74 69 54 45 46 47 48 51 51 50 48 47 48 48 48 48 48 49 50 51 55 59 63 71 80 77 72 68 52
42 41 45 52 55 48 35 29 23 19 41 69 76 73 67 56 51 51 50 52 54 53 53 52 51 51 51 53 55 55 55 57 59 62 66 71 76 79 79 78 69 50
41 39 43 50 54 46 33 28 22 18 40 70 80 76 73 67 61 57 54 55 54 53 53 54 54 55 57 60 62 64 67 68 71 74 78 81 80 79 82 80 64 46
39 40 46 53 53 44 32 27 22 16 29 54 71 77 77 74 68 62 57 53 50 48 48 49 54 60 66 71 74 77 78 77 82 89 88 82 79 78 79 70 53 40
40 44 52 57 52 41 33 28 22 17 19 29 40 49 54 54 53 50 44 37 36 37 39 46 58 67 77 86 88 83 80 80 82 82 72 61 60 62 59 50 39 33
45 51 58 60 52 42 36 29 22 19 18 18 19 23 27 30 31 30 27 27 32 38 45 58 74 84 88 87 79 71 74 80 73 58 46 41 41 42 39 34 32 31
53 60 62 61 54 46 39 31 24 21 21 21 20 21 23 24 25 27 29 36 41 47 58 74 86 89 80 65 57 59 68 68 55 41 37 37 36 34 32 31 32 35
59 62 62 61 55 48 40 34 28 24 23 25 26 28 30 31 35 39 42 46 46 50 68 83 84 72 53 36 35 43 47 44 38 37 38 36 34 34 33 35 37 41
58 57 56 54 50 45 43 38 31 27 27 29 31 35 36 38 41 43 45 47 44 49 67 76 63 44 31 26 28 32 35 35 38 41 40 37 37 38 39 41 45 50
51 48 47 45 41 41 43 39 34 32 32 34 36 37 38 39 39 38 40 43 42 45 55 54 41 30 28 31 33 33 36 41 46 46 43 41 42 43 45 48 52 56
47 43 42 41 39 40 42 40 38 37 37 37 39 40 41 40 37 33 33 35 35 36 39 38 33 33 36 37 37 38 45 52 54 49 45 46 48 50 51 54 57 59
46 43 41 41 42 43 43 41 40 40 41 42 41 40 39 36 34 35 35 35 35 36 38 39 38 39 39 38 39 45 53 55 51 47 50 54 55 55 56 58 60 61
41 43 41 41 44 44 41 39 41 44 45 44 40 37 35 33 35 38 38 36 33 34 38 40 39 39 39 41 46 53 57 53 48 51 58 62 59 58 60 61 62 64
35 39 39 39 40 39 39 43 47 48 44 39 36 36 36 35 34 34 34 32 30 32 35 36 39 45 49 51 53 55 54 51 52 59 66 65 62 61 63 65 66 67
28 31 33 34 36 40 44 47 47 44 39 36 36 36 35 32 30 29 29 28 28 28 29 38 53 62 65 63 57 53 57 61 66 73 74 69 64 64 67 70 70 69
25 31 36 39 42 45 45 42 40 38 36 34 32 30 28 27 27 26 26 26 26 25 34 57 76 77 74 67 54 54 69 81 86 87 79 68 65 67 71 74 73 71
33 40 43 43 44 42 40 38 37 35 33 31 29 28 28 28 26 25 24 23 23 27 44 69 81 78 73 60 48 60 87 100 100 91 76 67 68 71 73 76 75 71
Wind_Speed
22 23 24 24 23 23 23 23 22 22 22 20 18 18 19 20 19 18 17 17 17 18 18 18 19 19 20 21 22 22 23 24 24 23 23 23 25 27 29 30 31 32
23 23 24 24 23 22 22 22 22 22 22 20 19 19 19 19 19 17 17 17 18 18 18 19 20 20 21 22 23 23 24 24 23 23 23 25 26 28 30 31 32 34
23 23 24 24 23 22 22 22 22 22 21 20 20 20 19 19 18 17 17 18 18 18 19 20 20 21 22 23 23 24 24 23 23 24 25 26 28 30 31 32 34 36
22 23 24 24 23 22 22 22 22 22 22 21 20 19 19 19 18 17 17 18 18 19 19 20 21 22 23 24 24 24 24 24 24 25 27 28 29 30 32 33 35 36
22 23 24 24 23 23 23 23 22 23 23 21 20 19 19 19 18 17 17 18 18 19 20 21 22 23 24 24 24 25 25 25 26 27 28 28 29 31 32 34 35 36
21 23 24 24 24 24 23 22 22 23 23 21 20 20 19 19 18 17 17 18 18 20 21 22 23 24 25 25 25 26 26 27 28 28 29 29 30 32 33 34 36 37
21 23 24 25 25 25 24 23 23 22 22 21 20 20 20 19 18 18 18 18 19 21 22 23 24 25 26 26 26 27 28 29 29 30 31 31 32 34 35 35 37 38
21 23 25 25 26 26 25 23 23 22 21 20 20 21 20 19 19 18 19 19 20 22 23 24 25 26 27 27 28 29 30 31 31 32 33 33 34 35 36 37 38 38
22 23 25 26 26 26 25 23 23 22 21 20 20 20 20 19 20 20 20 21 22 23 25 25 26 28 28 29 30 31 31 32 33 34 35 35 36 37 37 38 39 39
23 24 25 26 26 26 25 23 23 22 21 20 20 20 19 20 21 21 22 22 24 25 26 27 28 29 30 31 32 33 34 35 36 37 37 37 38 38 38 39 39 39
24 25 25 26 26 26 24 23 22 21 20 20 20 19 20 21 22 23 23 24 26 27 28 29 30 31 32 33 34 35 36 37 38 39 38 38 38 39 39 40 39 39
25 25 25 25 26 25 23 23 22 20 20 20 20 20 21 22 23 24 25 27 28 30 30 31 32 33 34 35 36 37 38 39 41 40 39 38 38 39 39 39 39 39
26 26 26 26 26 24 23 22 21 19 20 21 21 22 23 24 24 25 27 29 30 31 32 32 33 34 35 37 37 37 37 38 39 37 34 34 35 36 37 38 38 39
26 26 26 26 25 24 23 21 20 18 19 21 22 23 24 25 24 26 28 29 30 32 33 33 34 36 36 36 35 34 34 34 33 30 28 29 30 32 34 36 37 38
27 27 26 26 25 24 23 21 19 18 19 21 22 23 23 24 24 26 28 28 29 32 33 34 34 34 34 33 32 33 33 32 30 29 29 29 29 31 33 34 36 37
27 27 26 25 25 24 23 20 19 19 20 21 22 22 23 24 25 27 28 28 30 32 34 33 33 33 34 34 34 33 32 32 32 31 31 30 31 32 32 33 35 36
26 27 26 25 25 24 22 21 20 21 21 22 22 23 24 25 26 27 28 29 30 32 33 33 33 34 35 35 35 34 34 33 33 32 32 32 32 32 32 33 34 35
26 26 26 25 24 23 22 22 23 23 23 24 24 25 25 26 27 28 29 30 30 31 32 32 33 34 35 35 35 35 35 34 33 33 33 33 32 32 32 32 33 34
26 25 25 24 23 22 23 24 24 24 25 26 27 27 27 27 28 28 29 30 30 30 30 31 32 33 33 34 34 34 34 33 33 33 33 33 32 31 31 32 33 34
25 24 23 23 22 22 24 25 25 26 27 27 28 28 28 28 28 27 27 28 29 30 30 30 32 32 32 33 33 33 33 33 33 33 33 32 31 31 32 32 33 34
25 24 23 23 23 24 26 26 27 28 28 28 28 29 28 28 27 27 27 28 29 29 30 30 32 32 31 32 32 33 33 33 33 34 33 32 31 31 32 33 34 34
26 25 25 25 26 28 28 28 28 28 28 28 28 28 27 27 28 27 28 28 29 29 30 30 32 32 31 31 32 32 33 34 34 33 32 31 31 32 33 33 34 34
27 27 28 28 29 30 29 28 28 28 27 27 27 27 27 27 27 27 28 29 29 30 30 31 32 31 31 31 32 32 33 34 34 32 31 30 32 33 33 33 33 33
28 29 30 29 29 29 28 27 27 27 26 26 26 27 27 27 27 28 29 29 30 32 33 33 32 31 31 32 33 33 33 34 33 31 30 31 32 32 32 32 33 33
28 28 28 28 27 27 27 26 25 25 26 25 25 27 27 27 28 29 29 31 33 35 34 33 32 31 31 32 34 34 34 34 32 30 30 32 32 32 32 32 33 34
26 26 27 26 26 26 26 25 24 25 25 25 25 26 27 28 29 30 31 33 36 37 35 34 32 31 32 33 34 34 33 31 30 30 32 33 32 32 32 32 33 34
Wind_Direction
284 284 283 281 280 281 280 279 283 285 278 270 264 262 262 263 265 267 267 268 270 272 276 279 281 284 286 288 290 291 291 291 292 292 294 296 297 298 299 301 305 307
283 283 282 280 279 279 277 278 282 281 273 267 264 263 263 264 266 266 267 269 271 274 278 280 282 285 287 288 289 289 290 290 290 292 294 296 297 298 299 302 304 305
283 282 280 279 277 276 276 277 279 276 270 267 265 264 264 265 266 266 267 269 272 275 278 281 284 286 287 288 288 288 288 289 291 292 294 295 296 297 300 302 304 304
282 281 279 277 276 275 275 277 277 273 268 266 265 264 264 265 266 266 267 270 273 277 280 283 285 285 286 286 287 288 288 290 292 293 294 294 295 298 301 302 303 304
280 279 277 275 275 275 276 278 278 274 269 265 263 263 264 266 266 267 269 273 277 280 282 284 284 284 285 286 288 289 290 291 292 292 292 293 295 299 301 302 303 304
279 277 275 275 275 275 277 280 280 277 271 266 264 264 266 267 267 268 272 276 279 281 283 284 284 284 286 288 290 291 291 291 291 291 290 292 295 299 301 303 305 305
276 275 273 274 275 276 278 280 282 281 275 269 266 265 266 266 267 270 273 277 280 283 284 284 284 286 287 290 291 291 290 289 290 290 291 293 296 300 302 304 306 306
273 274 273 274 275 277 279 281 283 283 279 273 268 265 265 266 267 270 273 277 281 284 284 285 286 287 289 290 291 291 290 290 290 291 292 294 297 300 302 304 305 305
272 274 274 274 275 277 280 283 285 284 281 276 269 265 264 265 266 269 273 278 282 284 285 287 288 289 289 291 291 291 291 291 291 292 293 295 298 300 301 302 304 305
271 273 274 274 275 277 280 284 285 284 281 276 269 265 263 264 266 270 274 279 282 285 287 287 288 289 289 290 291 291 291 291 291 292 293 295 297 299 300 301 302 304
270 272 273 274 275 276 279 282 283 282 279 274 270 267 266 267 268 271 275 278 282 285 286 287 287 288 289 290 290 290 290 290 290 290 292 295 297 299 299 299 301 303
270 272 273 273 274 275 278 280 281 280 275 273 272 271 270 271 272 275 277 278 282 284 286 287 287 288 289 288 288 288 289 291 291 291 294 296 297 297 297 299 301 302
269 270 271 272 273 274 276 278 280 279 273 271 272 272 272 274 276 278 278 279 282 284 286 287 287 288 288 287 288 290 294 297 296 296 298 298 296 296 297 298 300 300
267 268 269 270 271 271 273 276 279 277 272 270 270 270 273 276 278 278 278 280 283 285 285 286 287 289 290 290 293 296 301 305 304 303 304 302 298 296 296 297 298 299
265 266 268 268 268 268 270 274 275 273 269 268 268 270 273 276 278 278 280 282 284 284 285 287 290 292 294 296 299 302 304 307 309 309 307 304 301 299 298 298 299 300
263 264 266 266 265 266 268 270 271 268 266 266 269 272 274 276 277 279 282 283 283 284 286 290 291 293 296 299 300 303 305 307 308 308 308 306 304 302 301 300 300 301
260 261 262 263 263 264 266 267 267 264 265 267 270 272 274 276 278 280 282 283 284 286 288 290 290 292 297 299 299 302 304 305 307 307 307 307 305 303 303 302 301 302
258 259 260 261 262 263 264 264 264 264 266 268 270 272 275 277 279 280 282 284 285 286 287 288 290 293 296 298 299 301 302 305 306 307 307 306 305 304 304 303 304 304
257 259 260 261 261 261 261 262 263 265 267 269 271 274 276 278 280 281 282 284 285 286 287 289 291 292 294 295 297 300 302 303 305 306 306 306 305 306 307 307 307 307
257 259 260 260 259 258 258 259 262 265 268 271 274 277 278 279 281 281 281 283 285 286 287 288 289 290 292 294 297 300 301 303 305 307 307 307 308 309 309 309 309 309
257 258 258 259 258 258 257 259 263 266 269 272 275 276 278 279 280 280 281 282 284 285 286 287 288 290 292 295 299 300 301 304 306 307 307 308 310 311 310 310 310 309
255 255 255 255 256 258 260 262 265 267 270 272 273 275 277 279 281 281 282 283 285 287 287 287 289 291 294 297 300 300 302 304 305 305 306 308 310 310 310 310 310 310
252 253 253 253 255 258 261 264 266 268 269 270 273 276 277 279 282 283 284 286 289 290 289 288 288 290 294 297 299 300 301 303 304 304 305 307 309 310 310 310 310 311
255 255 255 257 258 260 262 263 264 266 267 269 273 277 279 281 284 286 287 290 292 292 291 288 286 289 293 297 300 301 300 301 303 302 303 307 309 310 310 310 311 311
259 258 258 260 260 260 260 260 262 265 268 271 275 278 282 287 289 289 290 293 294 294 292 287 284 288 294 297 300 300 299 300 301 300 303 307 309 310 311 311 311 311
259 257 258 258 258 258 259 261 263 267 270 274 277 281 286 290 290 291 293 295 296 294 289 282 282 289 294 296 300 301 299 299 299 300 305 308 309 311 312 312 312 310